Location: Cucq
(50.4773°N, 1.6202°E)
Time: 10:44:14
(UTC+00:00)

Cosmos 724 - Pass Details

Date: 07 August 2020
Orbit: 856 x 939 km, 65.6° (Epoch: 21 September)

Event Time Altitude Azimuth Distance (km) Brightness Sun altitude
Rises 03:26:41 0° 319° (NW) 3,510 7.4 -9.3°
Reaches altitude 10° 03:29:12 10° 315° (NW) 2,579 6.7 -8.9°
Maximum altitude 03:35:03 56° 239° (WSW) 1,075 4.4 -8.2°
Drops below altitude 10° 03:40:59 10° 162° (SSE) 2,618 6.6 -7.5°
Sets 03:43:34 0° 159° (SSE) 3,566 7.3 -7.2°
